Tracking 29510 objects as of 16-Sep-2024
HD Live streaming from Space Station
objects crossing your sky now

COSMOS 2535 DEB

Track COSMOS 2535 DEB now!
10-day predictions


NORAD ID: 44641
Int'l Code: 2019-039M
Perigee: 537.5 km
Apogee: 573.9 km
Inclination: 97.6 °
Period: 95.6 minutes
Semi major axis: 6926 km
RCS: Unknown
Launch date: July 10, 2019
Source: Commonwealth of Independent States (former USSR) (CIS)
Launch site: PLESETSK MISSILE AND SPACE COMPLEX (PKMTR)

Note: This is SATELLITE DEBRIS
Your satellite tracking list
Your tracking list is empty




NASA's NSSDC Master Catalog

Two Line Element Set (TLE):
1 44641U 19039M   24259.63267274  .00023250  00000-0  15849-2 0  9991
2 44641  97.6451 319.0080 0026268  36.1453 324.1543 15.05959420270023
Source of the keplerian elements: AFSPC